2018-046C

Last updated on Mon Aug 13 2018 00:15:07 GMT+0000 (Coordinated Universal Time)

1 43556U 18046C 18224.03064953 -.00000164 00000-0 70023-5 0 9998 2 43556 51.6456 105.6908 0009265 47.7538 312.4227 15.27671072 4055
UTC large
Height (km)
Speed (km/s)
/
Latitude / Longitude
Inclination (degrees)
Orbital Period (minutes)
Azimuth
Elevation
Range (km)
Doppler Factor

Next 0 passes for location: London (51.5072 / 0.1276)

Sorry there are no passes over London.